Onweer radar Meer informatie blitzortung!


Regen radar Meer informatie rain snow radar


Bezoek onze andere websites:


Het weer levert geen direct gevaar op.    Er zijn geen waarschuwingen afgegeven.

Select another period ( hide this area )

Eenheden Periode Custom range Directly to
Metrisch Engels Beide
Dagelijkse Wekelijkse Maandelijkse Jaarlijkse
use both date-selectors for a custom range
previous Dag
With this date

WeatherUnderground graphs for this period ( click here )


Dagelijkse Samenvatting Maandag 10 december 2018
Tijd Temp. ( °C ) Dew pt. ( °C ) Wind ( km/h ) van Windvlaag ( km/h ) Luchtdruk ( hPa ) Humid.( % ) Rainrate ( cm )
Hoog6,6 4,8 19,3 Westen ( 251/649 ) 25,7 1020,5 93 1,50
Gemiddeld5,6 4,0 6,4 Westen #33/102 14,5 1018,6 90 1,40
Laag4,9 3,4 -   0,0 1016,1 82 -
Dagelijkse Tabular details for Maandag 10 december 2018
Tijd Temp. ( °C ) Dew pt. ( °C ) Wind ( km/h ) van Windvlaag ( km/h ) Luchtdruk ( hPa ) Humid.( % ) Rainrate ( cm )
00:02 6,6 4,8 11,3 Westen 17,7 1016,1 88 -
00:07 6,6 4,8 11,3 WNW 17,7 1016,5 88 -
00:12 6,6 4,6 9,7 WZW 17,7 1016,5 87 -
00:17 6,6 4,6 6,4 WZW 17,7 1016,5 87 -
00:22 6,6 4,4 14,5 Westen 17,7 1016,5 86 -
00:27 6,6 4,4 8,0 WNW 17,7 1016,5 86 -
00:32 6,6 4,3 11,3 Westen 20,9 1016,8 85 -
00:37 6,4 4,1 9,7 Westen 24,1 1016,8 85 -
00:42 6,3 4,0 12,9 Westen 24,1 1016,8 85 -
00:47 6,3 4,1 9,7 NNW 17,7 1016,8 86 -
00:52 6,3 4,1 14,5 WZW 17,7 1016,8 86 -
00:57 6,3 4,0 8,0 Westen 17,7 1016,8 85 -
01:02 6,2 3,4 3,2 ZW 16,1 1017,2 82 -
01:07 6,3 3,5 19,3 Westen 19,3 1017,2 82 -
01:12 6,3 3,6 9,7 Westen 25,7 1017,2 83 -
01:17 6,3 3,8 6,4 WZW 25,7 1017,2 84 -
01:22 6,2 3,9 8,0 WZW 25,7 1017,5 85 -
01:27 6,2 3,9 8,0 Westen 20,9 1017,5 85 -
01:32 6,2 4,2 3,2 WNW 19,3 1017,8 87 -
01:37 6,1 4,1 6,4 WNW 19,3 1017,5 87 0,30
01:42 5,9 4,1 9,7 Westen 19,3 1017,8 88 0,50
01:47 5,7 3,9 8,0 Westen 17,7 1017,8 88 0,50
01:52 5,7 3,9 8,0 ZW 14,5 1017,5 88 0,50
01:57 5,6 3,8 6,4 Westen 14,5 1017,5 88 0,50
02:02 5,6 3,8 6,4 Westen 16,1 1017,5 88 0,50
02:07 5,6 3,8 11,3 Westen 16,1 1017,5 88 0,50
02:12 5,5 3,7 6,4 Westen 16,1 1017,8 88 0,50
02:17 5,5 3,8 4,8 Westen 14,5 1017,8 89 0,50
02:22 5,5 3,8 3,2 WNW 14,5 1017,8 89 0,50
02:27 5,4 3,7 1,6 WNW 14,5 1017,5 89 0,50
02:32 5,4 3,7 3,2 Westen 14,5 1017,8 89 0,50
02:37 5,3 3,8 8,0 WNW 14,5 1017,8 90 0,50
02:42 5,3 3,8 4,8 WNW 14,5 1017,8 90 0,30
02:47 5,2 3,7 1,6 NW 12,9 1017,8 90 0,30
02:52 5,2 3,7   Kalm 12,9 1018,2 90 0,30
02:57 5,1 3,8   Kalm 11,3 1018,2 91 0,30
03:02 5,1 3,8   Kalm 8,0 1018,2 91 0,30
03:07 5,0 3,5   Kalm   1018,2 90 0,30
03:12 4,9 3,6   Kalm   1018,2 91 0,30
03:17 5,0 3,8 3,2 Westen 8,0 1017,8 92 -
03:22 5,1 3,9 3,2 WNW 8,0 1018,2 92 -
03:27 5,3 4,1 9,7 Westen 8,0 1018,2 92 -
03:32 5,4 4,2 9,7 WZW 11,3 1018,2 92 -
03:37 5,6 4,2 3,2 WNW 11,3 1018,2 91 -
03:42 5,7 4,3 1,6 NNW 11,3 1018,5 91 -
03:47 5,7 4,3 6,4 Noorden 11,3 1018,5 91 -
03:52 5,7 4,2 17,7 NW 12,9 1018,8 90 -
03:57 5,5 4,0 6,4 Noorden 22,5 1018,8 90 -
04:02 5,4 3,9   Kalm 22,5 1018,5 90 0,30
04:07 5,3 4,0 3,2 WZW 19,3 1018,5 91 0,30
04:12 5,2 3,9 4,8 Westen 12,9 1018,8 91 0,30
04:17 5,2 4,0 3,2 WNW 8,0 1018,8 92 0,30
04:22 5,2 4,0 1,6 NW 8,0 1018,8 92 0,30
04:27 5,1 3,9 1,6 WZW 8,0 1018,8 92 0,50
04:32 5,2 4,0 8,0 Noorden 16,1 1018,8 92 0,50
04:37 5,2 4,0 11,3 NNW 20,9 1019,2 92 0,50
04:42 5,1 3,8 1,6 NNW 20,9 1019,2 91 0,50
04:47 5,0 3,7 4,8 ZW 20,9 1018,8 91 1,00
04:52 5,0 3,8 6,4 Westen 20,9 1018,8 92 1,00
04:57 4,9 3,7 4,8 NW 16,1 1018,8 92 1,30
05:02 4,9 3,7 3,2 WNW 12,9 1018,8 92 1,30
05:07 5,0 3,8 3,2 NW 11,3 1018,8 92 1,30
05:12 5,2 4,0 6,4 NW 11,3 1018,8 92 1,30
05:17 5,2 4,0 8,0 WNW 11,3 1019,2 92 1,50
05:22 5,3 4,3 6,4 NW 12,9 1019,2 93 1,50
05:27 5,4 4,4 1,6 Westen 12,9 1019,2 93 1,50
05:32 5,5 4,3 1,6 NW 12,9 1019,2 92 1,50
05:37 5,6 4,4 8,0 WNW 12,9 1019,2 92 1,50
05:42 5,5 4,3 8,0 Westen 12,9 1019,2 92 1,50
05:47 5,5 4,3 6,4 WZW 12,9 1019,2 92 1,30
05:52 5,4 4,2 8,0 Westen 11,3 1019,2 92 1,30
05:57 5,4 4,2 11,3 NW 11,3 1019,2 92 1,00
06:02 5,4 4,2 3,2 WNW 11,3 1019,5 92 1,00
06:07 5,4 4,2 1,6 Westen 11,3 1019,5 92 1,00
06:12 5,4 4,2 6,4 Westen 11,3 1019,5 92 1,00
06:17 5,4 4,2 3,2 Westen 12,9 1019,5 92 0,80
06:22 5,4 4,2 6,4 WNW 12,9 1019,5 92 1,00
06:27 5,4 4,2 8,0 ZW 12,9 1019,9 92 1,00
06:32 5,4 4,2 8,0 WNW 11,3 1019,9 92 0,80
06:37 5,4 4,0 8,0 WNW 11,3 1019,9 91 0,80
06:42 5,5 4,1 9,7 WZW 14,5 1019,9 91 0,50
06:47 5,5 4,1 9,7 ZW 14,5 1019,9 91 0,50
06:52 5,5 4,1 8,0 Westen 16,1 1019,9 91 0,50
06:57 5,4 4,0 6,4 NW 16,1 1019,9 91 0,50
07:02 5,4 4,0 6,4 WNW 12,9 1019,9 91 0,50
07:07 5,4 4,0 9,7 NW 12,9 1019,9 91 0,30
07:12 5,4 4,0 6,4 Westen 12,9 1019,9 91 0,30
07:17 5,4 4,0 1,6 WNW 12,9 1019,9 91 -
07:22 5,5 4,1 11,3 NW 14,5 1019,9 91 -
07:27 5,5 4,0 3,2 WNW 14,5 1019,9 90 -
07:32 5,5 4,0 9,7 WNW 12,9 1020,2 90 -
07:37 5,5 4,0 1,6 NW 12,9 1020,2 90 -
07:42 5,4 3,9   Kalm 12,9 1020,2 90 -
07:47 5,4 3,9 3,2 WNW 12,9 1020,2 90 -
07:52 5,3 3,8 3,2 Westen 9,7 1020,2 90 -
07:57 5,2 3,7 9,7 Westen 9,7 1020,2 90 -
08:02 5,2 3,9 4,8 WNW 9,7 1020,2 91 -
08:07 5,3 3,8 3,2 NW 11,3 1020,2 90 -
08:12 5,3 3,8 3,2 Westen 11,3 1020,5 90 -
08:17 5,4 3,9 6,4 Westen 14,5 1020,5 90 -
08:22 5,4 3,9 16,1 WNW 14,5 1020,5 90 -
08:27 5,6 4,1 11,3 WZW 14,5 1020,5 90 -
Dagelijkse Samenvatting Maandag 10 december 2018
Tijd Temp. ( °C ) Dew pt. ( °C ) Wind ( km/h ) van Windvlaag ( km/h ) Luchtdruk ( hPa ) Humid.( % ) Rainrate ( cm )
Hoog6,6 4,8 19,3 Westen ( 251/649 ) 25,7 1020,5 93 1,50
Gemiddeld5,6 4,0 6,4 Westen #33/102 14,5 1018,6 90 1,40
Laag4,9 3,4 -   0,0 1016,1 82 -
Dagelijkse Tabular details for Maandag 10 december 2018
Tijd Temp. ( °C ) Dew pt. ( °C ) Wind ( km/h ) van Windvlaag ( km/h ) Luchtdruk ( hPa ) Humid.( % ) Rainrate ( cm )
00:02 6,6 4,8 11,3 Westen 17,7 1016,1 88 -
00:07 6,6 4,8 11,3 WNW 17,7 1016,5 88 -
00:12 6,6 4,6 9,7 WZW 17,7 1016,5 87 -
00:17 6,6 4,6 6,4 WZW 17,7 1016,5 87 -
00:22 6,6 4,4 14,5 Westen 17,7 1016,5 86 -
00:27 6,6 4,4 8,0 WNW 17,7 1016,5 86 -
00:32 6,6 4,3 11,3 Westen 20,9 1016,8 85 -
00:37 6,4 4,1 9,7 Westen 24,1 1016,8 85 -
00:42 6,3 4,0 12,9 Westen 24,1 1016,8 85 -
00:47 6,3 4,1 9,7 NNW 17,7 1016,8 86 -
00:52 6,3 4,1 14,5 WZW 17,7 1016,8 86 -
00:57 6,3 4,0 8,0 Westen 17,7 1016,8 85 -
01:02 6,2 3,4 3,2 ZW 16,1 1017,2 82 -
01:07 6,3 3,5 19,3 Westen 19,3 1017,2 82 -
01:12 6,3 3,6 9,7 Westen 25,7 1017,2 83 -
01:17 6,3 3,8 6,4 WZW 25,7 1017,2 84 -
01:22 6,2 3,9 8,0 WZW 25,7 1017,5 85 -
01:27 6,2 3,9 8,0 Westen 20,9 1017,5 85 -
01:32 6,2 4,2 3,2 WNW 19,3 1017,8 87 -
01:37 6,1 4,1 6,4 WNW 19,3 1017,5 87 0,30
01:42 5,9 4,1 9,7 Westen 19,3 1017,8 88 0,50
01:47 5,7 3,9 8,0 Westen 17,7 1017,8 88 0,50
01:52 5,7 3,9 8,0 ZW 14,5 1017,5 88 0,50
01:57 5,6 3,8 6,4 Westen 14,5 1017,5 88 0,50
02:02 5,6 3,8 6,4 Westen 16,1 1017,5 88 0,50
02:07 5,6 3,8 11,3 Westen 16,1 1017,5 88 0,50
02:12 5,5 3,7 6,4 Westen 16,1 1017,8 88 0,50
02:17 5,5 3,8 4,8 Westen 14,5 1017,8 89 0,50
02:22 5,5 3,8 3,2 WNW 14,5 1017,8 89 0,50
02:27 5,4 3,7 1,6 WNW 14,5 1017,5 89 0,50
02:32 5,4 3,7 3,2 Westen 14,5 1017,8 89 0,50
02:37 5,3 3,8 8,0 WNW 14,5 1017,8 90 0,50
02:42 5,3 3,8 4,8 WNW 14,5 1017,8 90 0,30
02:47 5,2 3,7 1,6 NW 12,9 1017,8 90 0,30
02:52 5,2 3,7   Kalm 12,9 1018,2 90 0,30
02:57 5,1 3,8   Kalm 11,3 1018,2 91 0,30
03:02 5,1 3,8   Kalm 8,0 1018,2 91 0,30
03:07 5,0 3,5   Kalm   1018,2 90 0,30
03:12 4,9 3,6   Kalm   1018,2 91 0,30
03:17 5,0 3,8 3,2 Westen 8,0 1017,8 92 -
03:22 5,1 3,9 3,2 WNW 8,0 1018,2 92 -
03:27 5,3 4,1 9,7 Westen 8,0 1018,2 92 -
03:32 5,4 4,2 9,7 WZW 11,3 1018,2 92 -
03:37 5,6 4,2 3,2 WNW 11,3 1018,2 91 -
03:42 5,7 4,3 1,6 NNW 11,3 1018,5 91 -
03:47 5,7 4,3 6,4 Noorden 11,3 1018,5 91 -
03:52 5,7 4,2 17,7 NW 12,9 1018,8 90 -
03:57 5,5 4,0 6,4 Noorden 22,5 1018,8 90 -
04:02 5,4 3,9   Kalm 22,5 1018,5 90 0,30
04:07 5,3 4,0 3,2 WZW 19,3 1018,5 91 0,30
04:12 5,2 3,9 4,8 Westen 12,9 1018,8 91 0,30
04:17 5,2 4,0 3,2 WNW 8,0 1018,8 92 0,30
04:22 5,2 4,0 1,6 NW 8,0 1018,8 92 0,30
04:27 5,1 3,9 1,6 WZW 8,0 1018,8 92 0,50
04:32 5,2 4,0 8,0 Noorden 16,1 1018,8 92 0,50
04:37 5,2 4,0 11,3 NNW 20,9 1019,2 92 0,50
04:42 5,1 3,8 1,6 NNW 20,9 1019,2 91 0,50
04:47 5,0 3,7 4,8 ZW 20,9 1018,8 91 1,00
04:52 5,0 3,8 6,4 Westen 20,9 1018,8 92 1,00
04:57 4,9 3,7 4,8 NW 16,1 1018,8 92 1,30
05:02 4,9 3,7 3,2 WNW 12,9 1018,8 92 1,30
05:07 5,0 3,8 3,2 NW 11,3 1018,8 92 1,30
05:12 5,2 4,0 6,4 NW 11,3 1018,8 92 1,30
05:17 5,2 4,0 8,0 WNW 11,3 1019,2 92 1,50
05:22 5,3 4,3 6,4 NW 12,9 1019,2 93 1,50
05:27 5,4 4,4 1,6 Westen 12,9 1019,2 93 1,50
05:32 5,5 4,3 1,6 NW 12,9 1019,2 92 1,50
05:37 5,6 4,4 8,0 WNW 12,9 1019,2 92 1,50
05:42 5,5 4,3 8,0 Westen 12,9 1019,2 92 1,50
05:47 5,5 4,3 6,4 WZW 12,9 1019,2 92 1,30
05:52 5,4 4,2 8,0 Westen 11,3 1019,2 92 1,30
05:57 5,4 4,2 11,3 NW 11,3 1019,2 92 1,00
06:02 5,4 4,2 3,2 WNW 11,3 1019,5 92 1,00
06:07 5,4 4,2 1,6 Westen 11,3 1019,5 92 1,00
06:12 5,4 4,2 6,4 Westen 11,3 1019,5 92 1,00
06:17 5,4 4,2 3,2 Westen 12,9 1019,5 92 0,80
06:22 5,4 4,2 6,4 WNW 12,9 1019,5 92 1,00
06:27 5,4 4,2 8,0 ZW 12,9 1019,9 92 1,00
06:32 5,4 4,2 8,0 WNW 11,3 1019,9 92 0,80
06:37 5,4 4,0 8,0 WNW 11,3 1019,9 91 0,80
06:42 5,5 4,1 9,7 WZW 14,5 1019,9 91 0,50
06:47 5,5 4,1 9,7 ZW 14,5 1019,9 91 0,50
06:52 5,5 4,1 8,0 Westen 16,1 1019,9 91 0,50
06:57 5,4 4,0 6,4 NW 16,1 1019,9 91 0,50
07:02 5,4 4,0 6,4 WNW 12,9 1019,9 91 0,50
07:07 5,4 4,0 9,7 NW 12,9 1019,9 91 0,30
07:12 5,4 4,0 6,4 Westen 12,9 1019,9 91 0,30
07:17 5,4 4,0 1,6 WNW 12,9 1019,9 91 -
07:22 5,5 4,1 11,3 NW 14,5 1019,9 91 -
07:27 5,5 4,0 3,2 WNW 14,5 1019,9 90 -
07:32 5,5 4,0 9,7 WNW 12,9 1020,2 90 -
07:37 5,5 4,0 1,6 NW 12,9 1020,2 90 -
07:42 5,4 3,9   Kalm 12,9 1020,2 90 -
07:47 5,4 3,9 3,2 WNW 12,9 1020,2 90 -
07:52 5,3 3,8 3,2 Westen 9,7 1020,2 90 -
07:57 5,2 3,7 9,7 Westen 9,7 1020,2 90 -
08:02 5,2 3,9 4,8 WNW 9,7 1020,2 91 -
08:07 5,3 3,8 3,2 NW 11,3 1020,2 90 -
08:12 5,3 3,8 3,2 Westen 11,3 1020,5 90 -
08:17 5,4 3,9 6,4 Westen 14,5 1020,5 90 -
08:22 5,4 3,9 16,1 WNW 14,5 1020,5 90 -
08:27 5,6 4,1 11,3 WZW 14,5 1020,5 90 -

Download your copy of this data-set  here

Our weather-data as stored at Weather Underground. Script ontwikkeld door Jim McMurry. Aangepast voor de template door Leuven-Template.eu

U vindt ons ook hier:

Weather Underground

Apparatuur in gebruik:

Weerstation
Davis VP2

Weerprogramma
Meteohub

Weercomputer
Raspberry Pi

Webleverancier
My provider

Davis VP2

Meteohub

Raspberry Pi

My provider